Location: Unspecified
(0.0000°N, 0.0000°E)
Time: 10:32:24
(UTC+02:00)

Tiros 1 despin weight - All Passes

Search period start: 28 September 2016 00:00
Search period end: 08 October 2016 00:00
Orbit: 596 x 644 km, 48.2° (Epoch: 28 September)

Date Brightness Start Highest point End Pass type
(mag) Time Alt. Az. Time Alt. Az. Time Alt. Az.
28 Sep - 10:02:03 10° N 10:05:52 25° NE 10:09:42 10° ESE daylight
28 Sep - 11:43:28 10° WNW 11:47:18 25° SW 11:51:11 10° S daylight
28 Sep - 22:10:26 10° SSW 22:14:36 39° SE 22:18:43 10° ENE visible
28 Sep - 23:53:37 10° W 23:56:01 14° NW 23:58:25 10° NNW night (unlit)
29 Sep - 10:18:23 10° NNW 10:23:00 68° NE 10:27:40 10° SE daylight
29 Sep - 22:27:18 10° SW 22:31:44 70° NW 22:36:07 10° NNE visible
30 Sep - 08:56:03 10° NNE 08:58:41 15° NE 09:01:20 10° E daylight
30 Sep - 10:35:45 10° WNW 10:40:09 42° SW 10:44:36 10° SSE daylight
30 Sep - 21:03:55 10° S 21:07:28 23° SE 21:10:58 10° ENE visible
30 Sep - 22:45:16 10° WSW 22:48:52 24° NW 22:52:28 10° N visible
01 Oct - 09:11:34 10° NNW 09:15:52 39° NE 09:20:14 10° ESE daylight
01 Oct - 10:54:26 10° W 10:57:21 16° SW 11:00:18 10° S daylight
01 Oct - 21:20:11 10° SSW 21:24:38 65° SE 21:29:01 10° NE visible
02 Oct - 09:28:23 10° NW 09:33:00 75° SW 09:37:41 10° SE daylight
02 Oct - 19:58:02 10° SSE 20:00:18 14° SE 20:02:32 10° E daylight
02 Oct - 21:37:31 10° WSW 21:41:46 42° NW 21:45:56 10° NNE visible
03 Oct - 08:05:05 10° N 08:08:43 23° NE 08:12:24 10° ESE daylight
03 Oct - 09:46:15 10° WNW 09:50:10 27° SW 09:54:08 10° S daylight
03 Oct - 20:13:22 10° SSW 20:17:31 36° SE 20:21:36 10° ENE visible
03 Oct - 21:56:15 10° W 21:58:55 16° NW 22:01:35 10° NNW visible
04 Oct - 08:21:19 10° NNW 08:25:51 63° NE 08:30:28 10° SE daylight
04 Oct - 10:06:50 10° SW 10:07:25 10° SW 10:07:59 10° SW daylight
04 Oct - 20:30:09 10° SW 20:34:39 77° NW 20:39:04 10° NE visible
05 Oct - 06:59:16 10° NNE 07:01:33 14° NE 07:03:51 10° E visible
05 Oct - 08:38:35 10° NW 08:42:59 46° SW 08:47:28 10° SSE daylight
05 Oct - 19:06:53 10° S 19:10:21 21° SE 19:13:46 10° E daylight
05 Oct - 20:48:00 10° WSW 20:51:47 26° NW 20:55:30 10° N visible
06 Oct - 07:14:32 10° NNW 07:18:43 35° NE 07:22:58 10° ESE visible
06 Oct - 08:57:06 10° W 09:00:11 17° SW 09:03:17 10° S daylight
06 Oct - 19:23:03 10° SSW 19:27:32 59° SE 19:31:55 10° NE daylight
07 Oct - 07:31:16 10° NW 07:35:51 81° SW 07:40:30 10° SE daylight
07 Oct - 18:01:07 10° SSE 18:03:10 13° SE 18:05:11 10° ESE daylight
07 Oct - 19:40:19 10° SW 19:44:39 46° NW 19:48:55 10° NNE daylight
